TimeCDT,TemperatureF,Dew PointF,Humidity,Sea Level PressureIn,VisibilityMPH,Wind Direction,Wind SpeedMPH,Gust SpeedMPH,PrecipitationIn,Events,Conditions,WindDirDegrees,DateUTC
12:15 AM,60.8,53.6,77,30.20,10.0,Calm,Calm,-,N/A,,Overcast,0,2013-04-27 05:15:00
12:35 AM,60.8,53.6,77,30.20,10.0,Calm,Calm,-,N/A,,Overcast,0,2013-04-27 05:35:00
12:55 AM,60.8,51.8,72,30.19,10.0,Calm,Calm,-,N/A,,Overcast,0,2013-04-27 05:55:00
1:15 AM,60.8,51.8,72,30.19,10.0,Calm,Calm,-,N/A,,Overcast,0,2013-04-27 06:15:00
1:35 AM,60.8,53.6,77,30.19,10.0,Calm,Calm,-,N/A,,Overcast,0,2013-04-27 06:35:00
1:55 AM,60.8,53.6,77,30.19,10.0,NW,3.5,-,N/A,,Overcast,320,2013-04-27 06:55:00
2:15 AM,60.8,53.6,77,30.19,10.0,NNW,4.6,-,N/A,,Overcast,340,2013-04-27 07:15:00
2:35 AM,59.0,53.6,82,30.18,10.0,North,4.6,-,N/A,,Overcast,360,2013-04-27 07:35:00
2:55 AM,60.8,53.6,77,30.19,10.0,Calm,Calm,-,N/A,,Overcast,0,2013-04-27 07:55:00
3:15 AM,59.0,53.6,82,30.19,10.0,Calm,Calm,-,N/A,,Overcast,0,2013-04-27 08:15:00
3:35 AM,59.0,53.6,82,30.19,10.0,Calm,Calm,-,N/A,,Overcast,0,2013-04-27 08:35:00
3:55 AM,59.0,53.6,82,30.18,10.0,Calm,Calm,-,N/A,,Overcast,0,2013-04-27 08:55:00
4:15 AM,60.8,53.6,77,30.17,10.0,Calm,Calm,-,N/A,,Overcast,0,2013-04-27 09:15:00
4:35 AM,60.8,53.6,77,30.16,10.0,Calm,Calm,-,N/A,,Overcast,0,2013-04-27 09:35:00
4:55 AM,60.8,51.8,72,30.15,10.0,East,3.5,-,N/A,,Overcast,100,2013-04-27 09:55:00
5:15 AM,60.8,51.8,72,30.14,10.0,Calm,Calm,-,N/A,,Overcast,0,2013-04-27 10:15:00
6:35 AM,59.0,51.8,77,30.14,10.0,SW,3.5,-,N/A,,Scattered Clouds,220,2013-04-27 11:35:00
6:55 AM,60.8,53.6,77,30.15,10.0,Calm,Calm,-,N/A,,Scattered Clouds,0,2013-04-27 11:55:00
7:15 AM,59.0,53.6,82,30.15,10.0,SSE,3.5,-,N/A,,Scattered Clouds,150,2013-04-27 12:15:00
7:35 AM,60.8,53.6,77,30.15,10.0,SSE,3.5,-,N/A,,Clear,160,2013-04-27 12:35:00
7:55 AM,62.6,55.4,77,30.14,10.0,SSE,9.2,-,N/A,,Scattered Clouds,160,2013-04-27 12:55:00
8:15 AM,64.4,57.2,77,30.14,10.0,South,5.8,-,N/A,,Clear,190,2013-04-27 13:15:00
8:35 AM,64.4,57.2,77,30.14,10.0,South,3.5,-,N/A,,Clear,190,2013-04-27 13:35:00
8:55 AM,64.4,59.0,83,30.12,10.0,South,5.8,-,N/A,,Clear,170,2013-04-27 13:55:00
9:15 AM,69.8,60.8,73,30.12,10.0,South,6.9,-,N/A,,Clear,190,2013-04-27 14:15:00
9:35 AM,71.6,62.6,73,30.13,10.0,SSW,6.9,-,N/A,,Clear,200,2013-04-27 14:35:00
9:55 AM,73.4,62.6,69,30.13,10.0,SSW,9.2,-,N/A,,Clear,200,2013-04-27 14:55:00
10:15 AM,75.2,64.4,69,30.13,10.0,SSW,6.9,-,N/A,,Scattered Clouds,210,2013-04-27 15:15:00
10:55 AM,77.0,64.4,65,30.13,10.0,SSW,8.1,-,N/A,,Mostly Cloudy,210,2013-04-27 15:55:00
11:15 AM,75.2,62.6,65,30.12,10.0,SSW,9.2,-,N/A,,Overcast,200,2013-04-27 16:15:00
11:35 AM,75.2,62.6,65,30.13,10.0,SW,9.2,-,N/A,,Overcast,230,2013-04-27 16:35:00
11:55 AM,77.0,62.6,61,30.12,10.0,SW,6.9,-,N/A,,Overcast,230,2013-04-27 16:55:00
12:15 PM,78.8,62.6,57,30.12,10.0,SW,11.5,16.1,N/A,,Overcast,230,2013-04-27 17:15:00
12:35 PM,77.0,62.6,61,30.11,10.0,WSW,4.6,-,N/A,,Mostly Cloudy,250,2013-04-27 17:35:00
12:55 PM,78.8,62.6,57,30.09,10.0,SSW,9.2,-,N/A,,Mostly Cloudy,200,2013-04-27 17:55:00
1:15 PM,78.8,62.6,57,30.09,10.0,SSW,8.1,-,N/A,,Mostly Cloudy,200,2013-04-27 18:15:00
1:35 PM,78.8,64.4,61,30.09,10.0,South,10.4,-,N/A,,Mostly Cloudy,190,2013-04-27 18:35:00
1:55 PM,78.8,64.4,61,30.08,10.0,SSW,4.6,-,N/A,,Mostly Cloudy,200,2013-04-27 18:55:00
2:15 PM,78.8,64.4,61,30.07,10.0,South,8.1,-,N/A,,Mostly Cloudy,180,2013-04-27 19:15:00
2:35 PM,78.8,62.6,57,30.06,10.0,SSW,8.1,-,N/A,,Mostly Cloudy,210,2013-04-27 19:35:00
2:55 PM,80.6,62.6,54,30.05,10.0,SW,6.9,-,N/A,,Clear,220,2013-04-27 19:55:00
3:15 PM,78.8,62.6,57,30.04,10.0,South,6.9,-,N/A,,Scattered Clouds,180,2013-04-27 20:15:00
3:35 PM,78.8,64.4,61,30.03,7.0,South,6.9,-,N/A,Thunderstorm,Mostly Cloudy,190,2013-04-27 20:35:00
3:55 PM,80.6,64.4,58,30.02,10.0,SSW,8.1,16.1,N/A,Thunderstorm,Mostly Cloudy,200,2013-04-27 20:55:00
4:15 PM,78.8,64.4,61,30.01,10.0,SSW,6.9,-,N/A,Thunderstorm,Mostly Cloudy,200,2013-04-27 21:15:00
4:35 PM,78.8,64.4,61,30.01,10.0,SSW,5.8,16.1,N/A,,Scattered Clouds,200,2013-04-27 21:35:00
4:55 PM,80.6,64.4,58,30.01,10.0,SW,9.2,-,N/A,,Scattered Clouds,220,2013-04-27 21:55:00
5:15 PM,80.6,64.4,58,30.01,10.0,South,11.5,16.1,N/A,,Scattered Clouds,190,2013-04-27 22:15:00
5:35 PM,75.2,62.6,65,30.01,10.0,South,5.8,19.6,N/A,Thunderstorm,Overcast,190,2013-04-27 22:35:00
5:55 PM,75.2,64.4,69,30.00,10.0,SSW,6.9,-,N/A,Thunderstorm,Scattered Clouds,200,2013-04-27 22:55:00
6:15 PM,75.2,64.4,69,29.99,10.0,South,6.9,-,N/A,,Clear,190,2013-04-27 23:15:00
6:35 PM,75.2,66.2,73,29.99,10.0,South,4.6,-,N/A,Thunderstorm,Clear,190,2013-04-27 23:35:00
6:55 PM,73.4,64.4,73,29.99,10.0,South,3.5,-,N/A,,Clear,180,2013-04-27 23:55:00
7:15 PM,71.6,64.4,78,29.99,10.0,South,3.5,-,N/A,,Clear,180,2013-04-28 00:15:00
7:35 PM,71.6,64.4,78,30.00,10.0,South,3.5,-,N/A,,Clear,170,2013-04-28 00:35:00
7:55 PM,69.8,64.4,83,30.00,10.0,SSE,3.5,-,N/A,Thunderstorm,Clear,160,2013-04-28 00:55:00
8:15 PM,69.8,64.4,83,30.01,10.0,SSE,4.6,-,N/A,,Mostly Cloudy,150,2013-04-28 01:15:00
8:35 PM,69.8,64.4,83,30.00,10.0,SSE,8.1,-,N/A,,Overcast,150,2013-04-28 01:35:00
8:55 PM,69.8,64.4,83,30.00,10.0,South,4.6,-,N/A,,Scattered Clouds,170,2013-04-28 01:55:00
9:15 PM,68.0,64.4,88,30.00,10.0,South,5.8,-,N/A,,Scattered Clouds,170,2013-04-28 02:15:00
9:55 PM,68.0,64.4,88,30.01,10.0,South,3.5,-,N/A,,Scattered Clouds,180,2013-04-28 02:55:00
10:15 PM,68.0,64.4,88,30.01,10.0,South,3.5,-,N/A,,Mostly Cloudy,170,2013-04-28 03:15:00
10:35 PM,68.0,64.4,88,30.01,10.0,South,3.5,-,N/A,,Scattered Clouds,170,2013-04-28 03:35:00
11:15 PM,68.0,64.4,88,30.01,10.0,South,3.5,-,N/A,,Scattered Clouds,180,2013-04-28 04:15:00
11:35 PM,68.0,64.4,88,30.01,10.0,South,4.6,-,N/A,,Mostly Cloudy,180,2013-04-28 04:35:00
11:55 PM,68.0,64.4,88,30.01,10.0,South,3.5,-,N/A,,Mostly Cloudy,180,2013-04-28 04:55:00